DELTA 1 DEB

基本信息
目录编号:
21452
目录名称:
DELTA 1 DEB
国际标识:
1975-052EL
轨道中心:
EARTH
物体状态:
在轨
发射日期:
1975-06-12 UTC
轨道信息
数据来源: 国际轨道数据
星历时间: 2026-09-11T11:27:27+0800
半长轴: 7886.008km
偏心率: 0.0579194
轨道倾角: 99.749°
近地点辐角: 95.584°
升交点赤经: 122.182°
平近点角: 50.848°
近地点: 1051.118km
远地点: 1964.624km
周期: 116.157分钟
每日圈数: 12.397011
详细信息
发射场:
AFWTR
轨道高度:
LEO
数据来源:
AOE Integration Group
参考系:
TEME
时间系统:
UTC
历元类型:
SGP4
2D轨道图
3D轨道图
轨道高度分析图
轨道倾角分析图
轨道综合分析图
查看轨道综合分析图